Вернуться в каталог

STARLINK-36523

АктивенСвязьVLEO
NORAD 67460·PAYLOAD·🇺🇸 United States

Запущен Jan 14, 2026 с Cape Canaveral Space Force Station

Loading…

Ближайшие Пролёты (ближайшие 24 часа)

TLE

СвежийSource: CelesTrak SupGP

Эпоха: Sep 14, 2026, 23:16 UTC

1 67460C 26008R   26257.96993056 -.00004396  00000+0 -15922-3 0  2570
2 67460  43.0026 216.5671 0001355 268.2077 203.8079 15.27584447    11

Отслеживайте STARLINK-36523 в реальном времени с AllMySat

Download on the App Store